SWA2190 KSAV-KDAL

Flight info

Callsign SWA2190
Flight time 2h 16m
Altitude 36000
Route SMALZ WIGVO DBN ARNNY SARKK PUDJE REDDN4
Aircraft B738/M-SDE2E3FGHIRWXY/LB1

Departure

Time 2026-04-29 14:05
Airport Savannah Hilton Head International Airport (KSAV)

Arrival

Time 2026-04-29 16:22
Airport Dallas Love Field (KDAL)
Time Latitude Longitude Altitude Speed Heading
2026-04-29 13:54 32.13615 -81.20719 53 ft 0 kts 215°
2026-04-29 13:58 32.13632 -81.20706 49 ft 4 kts 198°
2026-04-29 13:58 32.13657 -81.20704 53 ft 4 kts 154°
2026-04-29 13:58 32.13672 -81.20723 53 ft 4 kts 97°
2026-04-29 13:59 32.13673 -81.20729 53 ft 0 kts 91°
2026-04-29 14:00 32.13673 -81.20726 53 ft 2 kts 91°
2026-04-29 14:01 32.13672 -81.20667 53 ft 13 kts 90°
2026-04-29 14:01 32.13671 -81.20519 53 ft 21 kts 90°
2026-04-29 14:01 32.13653 -81.20347 49 ft 22 kts 135°
2026-04-29 14:01 32.13505 -81.20332 53 ft 21 kts 179°
2026-04-29 14:02 32.13353 -81.20331 53 ft 23 kts 179°
2026-04-29 14:02 32.13179 -81.20330 52 ft 26 kts 180°
2026-04-29 14:02 32.13043 -81.20353 49 ft 15 kts 240°
2026-04-29 14:02 32.13036 -81.20476 51 ft 15 kts 270°
2026-04-29 14:03 32.13038 -81.20606 51 ft 17 kts 271°
2026-04-29 14:03 32.13039 -81.20766 51 ft 23 kts 270°
2026-04-29 14:03 32.13041 -81.20977 51 ft 29 kts 271°
2026-04-29 14:03 32.13044 -81.21226 51 ft 31 kts 271°
2026-04-29 14:04 32.13046 -81.21473 51 ft 29 kts 270°
2026-04-29 14:04 32.13048 -81.21692 51 ft 23 kts 270°
2026-04-29 14:04 32.13025 -81.21848 50 ft 16 kts 213°
2026-04-29 14:04 32.12899 -81.21853 38 ft 21 kts 157°
2026-04-29 14:05 32.12874 -81.21728 38 ft 20 kts 91°
2026-04-29 14:05 32.12870 -81.21247 42 ft 99 kts 90°
2026-04-29 14:05 32.12858 -81.20151 98 ft 160 kts 92°
2026-04-29 14:05 32.12827 -81.18798 767 ft 176 kts 92°
2026-04-29 14:06 32.12836 -81.17219 1278 ft 204 kts 79°
2026-04-29 14:06 32.13494 -81.15635 1611 ft 231 kts 46°
2026-04-29 14:06 32.14935 -81.14716 2114 ft 244 kts
2026-04-29 14:06 32.16602 -81.14961 2739 ft 245 kts 330°
2026-04-29 14:07 32.17929 -81.16159 3560 ft 240 kts 313°
2026-04-29 14:07 32.19141 -81.17633 3977 ft 258 kts 310°
2026-04-29 14:07 32.20378 -81.19219 4782 ft 264 kts 310°
2026-04-29 14:07 32.21626 -81.20816 5769 ft 265 kts 310°
2026-04-29 14:08 32.22461 -81.21874 6406 ft 266 kts 310°
2026-04-29 14:08 32.23741 -81.23481 7275 ft 271 kts 310°
2026-04-29 14:08 32.25048 -81.25107 8128 ft 275 kts 311°
2026-04-29 14:08 32.26382 -81.26756 8994 ft 279 kts 311°
2026-04-29 14:09 32.27730 -81.28425 9831 ft 282 kts 309°
2026-04-29 14:09 32.29066 -81.30154 10536 ft 294 kts 309°
2026-04-29 14:09 32.30499 -81.32011 10739 ft 318 kts 308°
2026-04-29 14:09 32.32063 -81.33997 10926 ft 342 kts 309°
2026-04-29 14:10 32.33751 -81.36087 11388 ft 356 kts 310°
2026-04-29 14:10 32.35481 -81.38181 12126 ft 358 kts 310°
2026-04-29 14:10 32.37228 -81.40289 12951 ft 358 kts 310°
2026-04-29 14:10 32.38958 -81.42375 13621 ft 362 kts 310°
2026-04-29 14:11 32.40725 -81.44512 14270 ft 365 kts 310°
2026-04-29 14:11 32.42512 -81.46672 14900 ft 369 kts 310°
2026-04-29 14:11 32.44313 -81.48849 15535 ft 372 kts 310°
2026-04-29 14:11 32.45992 -81.51169 16130 ft 370 kts 298°
2026-04-29 14:12 32.47048 -81.53937 16737 ft 368 kts 285°
2026-04-29 14:12 32.47504 -81.56915 17291 ft 369 kts 271°
2026-04-29 14:12 32.47425 -81.59957 17869 ft 372 kts 267°
2026-04-29 14:12 32.47288 -81.63025 18373 ft 375 kts 267°
2026-04-29 14:13 32.47144 -81.66128 18865 ft 379 kts 267°
2026-04-29 14:13 32.47007 -81.69253 19383 ft 382 kts 267°
2026-04-29 14:13 32.46877 -81.72412 19863 ft 385 kts 267°
2026-04-29 14:13 32.46751 -81.75596 20315 ft 389 kts 268°
2026-04-29 14:14 32.46629 -81.78813 20744 ft 393 kts 268°
2026-04-29 14:14 32.46507 -81.82057 21172 ft 396 kts 268°
2026-04-29 14:14 32.46383 -81.85334 21606 ft 399 kts 268°
2026-04-29 14:14 32.46260 -81.88597 22006 ft 403 kts 268°
2026-04-29 14:15 32.46131 -81.91925 22403 ft 406 kts 267°
2026-04-29 14:15 32.46002 -81.95272 22810 ft 408 kts 267°
2026-04-29 14:15 32.45871 -81.98645 23176 ft 411 kts 267°
2026-04-29 14:15 32.45741 -82.02045 23510 ft 414 kts 268°
2026-04-29 14:16 32.45833 -82.05457 23849 ft 417 kts 276°
2026-04-29 14:16 32.46280 -82.08861 24182 ft 420 kts 279°
2026-04-29 14:16 32.46772 -82.12295 24516 ft 423 kts 279°
2026-04-29 14:16 32.47265 -82.15727 24872 ft 424 kts 279°
2026-04-29 14:17 32.47757 -82.19181 25216 ft 426 kts 279°
2026-04-29 14:17 32.48243 -82.22645 25548 ft 428 kts 279°
2026-04-29 14:17 32.48720 -82.26094 25831 ft 430 kts 279°
2026-04-29 14:17 32.49200 -82.29600 26126 ft 433 kts 279°
2026-04-29 14:18 32.49679 -82.33124 26435 ft 434 kts 279°
2026-04-29 14:18 32.50159 -82.36663 26736 ft 436 kts 279°
2026-04-29 14:18 32.50640 -82.40219 27025 ft 438 kts 279°
2026-04-29 14:18 32.51123 -82.43796 27315 ft 440 kts 279°
2026-04-29 14:19 32.51605 -82.47374 27576 ft 442 kts 279°
2026-04-29 14:19 32.52088 -82.50976 27836 ft 443 kts 279°
2026-04-29 14:19 32.52573 -82.54591 28083 ft 445 kts 279°
2026-04-29 14:19 32.53058 -82.58215 28332 ft 447 kts 279°
2026-04-29 14:20 32.53544 -82.61855 28639 ft 447 kts 279°
2026-04-29 14:20 32.54028 -82.65486 28994 ft 446 kts 279°
2026-04-29 14:20 32.54510 -82.69113 29372 ft 444 kts 279°
2026-04-29 14:20 32.54989 -82.72727 29751 ft 443 kts 279°
2026-04-29 14:21 32.55466 -82.76326 30116 ft 442 kts 279°
2026-04-29 14:21 32.55941 -82.79928 30474 ft 441 kts 279°
2026-04-29 14:21 32.56314 -82.83537 30840 ft 440 kts 273°
2026-04-29 14:21 32.56295 -82.87114 31209 ft 439 kts 268°
2026-04-29 14:22 32.56154 -82.90727 31548 ft 438 kts 268°
2026-04-29 14:22 32.55996 -82.94338 31925 ft 437 kts 267°
2026-04-29 14:22 32.55836 -82.97941 32310 ft 435 kts 268°
2026-04-29 14:22 32.55684 -83.01506 32694 ft 433 kts 268°
2026-04-29 14:23 32.55538 -83.05063 33022 ft 432 kts 268°
2026-04-29 14:23 32.55396 -83.08620 33361 ft 431 kts 268°
2026-04-29 14:23 32.55257 -83.12161 33690 ft 429 kts 268°
2026-04-29 14:23 32.55120 -83.15689 33987 ft 428 kts 268°
2026-04-29 14:24 32.54983 -83.19208 34318 ft 427 kts 268°
2026-04-29 14:24 32.54847 -83.22719 34610 ft 426 kts 268°
2026-04-29 14:24 32.54709 -83.26227 34918 ft 425 kts 268°
2026-04-29 14:24 32.54572 -83.29725 35220 ft 423 kts 268°
2026-04-29 14:25 32.54434 -83.33207 35453 ft 423 kts 267°
2026-04-29 14:25 32.54296 -83.36635 35754 ft 421 kts 267°
2026-04-29 14:25 32.54156 -83.40104 36049 ft 420 kts 267°
2026-04-29 14:25 32.54015 -83.43577 36042 ft 424 kts 267°
2026-04-29 14:26 32.53728 -83.50549 36052 ft 422 kts 267°
2026-04-29 14:26 32.53439 -83.57461 36062 ft 418 kts 267°
2026-04-29 14:27 32.53149 -83.64330 36063 ft 417 kts 267°
2026-04-29 14:28 32.52710 -83.74599 36078 ft 415 kts 267°
2026-04-29 14:28 32.52412 -83.81439 36087 ft 416 kts 267°
2026-04-29 14:29 32.52109 -83.88301 36087 ft 418 kts 267°
2026-04-29 14:29 32.51801 -83.95199 36078 ft 421 kts 267°
2026-04-29 14:30 32.51486 -84.02103 36079 ft 423 kts 266°
2026-04-29 14:30 32.51168 -84.09076 36071 ft 425 kts 266°
2026-04-29 14:31 32.50843 -84.16072 36063 ft 426 kts 266°
2026-04-29 14:31 32.50516 -84.23080 36061 ft 426 kts 266°
2026-04-29 14:32 32.50184 -84.30080 36065 ft 425 kts 266°
2026-04-29 14:32 32.49848 -84.37071 36056 ft 424 kts 266°
2026-04-29 14:33 32.49512 -84.43994 36043 ft 423 kts 266°
2026-04-29 14:33 32.49172 -84.50946 36222 ft 423 kts 266°
2026-04-29 14:33 32.49000 -84.54414 36533 ft 420 kts 266°
2026-04-29 14:34 32.48829 -84.57847 36969 ft 414 kts 266°
2026-04-29 14:34 32.48659 -84.61230 37415 ft 409 kts 266°
2026-04-29 14:34 32.48490 -84.64585 37735 ft 406 kts 266°
2026-04-29 14:34 32.48322 -84.67905 38026 ft 403 kts 266°
2026-04-29 14:35 32.48153 -84.71225 38040 ft 406 kts 266°
2026-04-29 14:35 32.47811 -84.77895 38062 ft 405 kts 266°
2026-04-29 14:36 32.47469 -84.84501 38058 ft 399 kts 266°
2026-04-29 14:36 32.47127 -84.91026 38066 ft 395 kts 266°
2026-04-29 14:37 32.46785 -84.97503 38069 ft 393 kts 266°
2026-04-29 14:37 32.46442 -85.03937 38081 ft 397 kts 267°
2026-04-29 14:38 32.46087 -85.10521 38070 ft 402 kts 267°
2026-04-29 14:38 32.45728 -85.17148 38063 ft 404 kts 267°
2026-04-29 14:39 32.45366 -85.23755 38062 ft 405 kts 267°
2026-04-29 14:39 32.44997 -85.30399 38081 ft 404 kts 267°
2026-04-29 14:40 32.44624 -85.37028 38069 ft 402 kts 267°
2026-04-29 14:40 32.44251 -85.43628 38072 ft 401 kts 267°
2026-04-29 14:41 32.43877 -85.50187 38070 ft 399 kts 267°
2026-04-29 14:41 32.43501 -85.56722 38070 ft 397 kts 267°
2026-04-29 14:42 32.43125 -85.63225 38076 ft 395 kts 267°
2026-04-29 14:42 32.42743 -85.69708 38076 ft 394 kts 267°
2026-04-29 14:43 32.42360 -85.76174 38074 ft 394 kts 267°
2026-04-29 14:43 32.41976 -85.82632 38074 ft 394 kts 268°
2026-04-29 14:44 32.41586 -85.89114 38082 ft 395 kts 268°
2026-04-29 14:44 32.41192 -85.95615 38085 ft 396 kts 267°
2026-04-29 14:45 32.40796 -86.02091 38085 ft 398 kts 268°
2026-04-29 14:45 32.40393 -86.08639 38082 ft 399 kts 268°
2026-04-29 14:46 32.39985 -86.15202 38082 ft 400 kts 268°
2026-04-29 14:46 32.39572 -86.21775 38082 ft 401 kts 268°
2026-04-29 14:47 32.39156 -86.28342 38093 ft 400 kts 268°
2026-04-29 14:47 32.38740 -86.34870 38091 ft 400 kts 268°
2026-04-29 14:48 32.38319 -86.41427 38085 ft 399 kts 268°
2026-04-29 14:48 32.37893 -86.47989 38060 ft 399 kts 268°
2026-04-29 14:49 32.37464 -86.54538 38082 ft 397 kts 268°
2026-04-29 14:49 32.37039 -86.60996 38091 ft 395 kts 268°
2026-04-29 14:50 32.36610 -86.67467 38095 ft 394 kts 268°
2026-04-29 14:50 32.36179 -86.73916 38093 ft 392 kts 268°
2026-04-29 14:51 32.35745 -86.80346 38099 ft 391 kts 268°
2026-04-29 14:51 32.35311 -86.86746 38100 ft 390 kts 269°
2026-04-29 14:52 32.34874 -86.93133 38104 ft 389 kts 269°
2026-04-29 14:52 32.34472 -86.99511 38100 ft 387 kts 272°
2026-04-29 14:53 32.34686 -87.05853 38097 ft 385 kts 276°
2026-04-29 14:53 32.34966 -87.12181 38102 ft 385 kts 276°
2026-04-29 14:54 32.35234 -87.18505 38105 ft 385 kts 276°
2026-04-29 14:54 32.35487 -87.24778 38095 ft 384 kts 276°
2026-04-29 14:55 32.35731 -87.31096 38093 ft 385 kts 276°
2026-04-29 14:55 32.35972 -87.37415 38096 ft 384 kts 276°
2026-04-29 14:56 32.36173 -87.42710 38094 ft 385 kts 276°
2026-04-29 14:56 32.36410 -87.49039 38083 ft 385 kts 276°
2026-04-29 14:57 32.36641 -87.55327 38089 ft 385 kts 277°
2026-04-29 14:57 32.36872 -87.61663 38080 ft 385 kts 277°
2026-04-29 14:58 32.37100 -87.67999 38072 ft 386 kts 277°
2026-04-29 14:58 32.37323 -87.74336 38062 ft 386 kts 277°
2026-04-29 14:59 32.37544 -87.80684 38066 ft 385 kts 277°
2026-04-29 14:59 32.37762 -87.87016 38061 ft 385 kts 277°
2026-04-29 15:00 32.37975 -87.93296 38066 ft 384 kts 277°
2026-04-29 15:00 32.38185 -87.99617 38054 ft 384 kts 277°
2026-04-29 15:01 32.38393 -88.05929 38061 ft 384 kts 277°
2026-04-29 15:01 32.38596 -88.12238 38054 ft 383 kts 277°
2026-04-29 15:02 32.38795 -88.18535 38055 ft 383 kts 277°
2026-04-29 15:02 32.38993 -88.24821 38057 ft 382 kts 277°
2026-04-29 15:03 32.39187 -88.31108 38054 ft 382 kts 277°
2026-04-29 15:03 32.39379 -88.37379 38042 ft 382 kts 276°
2026-04-29 15:04 32.39566 -88.43654 38046 ft 382 kts 276°
2026-04-29 15:04 32.39749 -88.49891 38051 ft 382 kts 276°
2026-04-29 15:05 32.39931 -88.56172 38049 ft 382 kts 276°
2026-04-29 15:05 32.40108 -88.62458 38049 ft 382 kts 276°
2026-04-29 15:06 32.40282 -88.68735 38053 ft 381 kts 276°
2026-04-29 15:06 32.40454 -88.74995 38057 ft 380 kts 276°
2026-04-29 15:07 32.40622 -88.81243 38057 ft 379 kts 276°
2026-04-29 15:07 32.40787 -88.87465 38055 ft 378 kts 276°
2026-04-29 15:08 32.40947 -88.93677 38053 ft 377 kts 276°
2026-04-29 15:08 32.41104 -88.99867 38053 ft 375 kts 276°
2026-04-29 15:09 32.41255 -89.05987 38057 ft 374 kts 276°
2026-04-29 15:09 32.41407 -89.12172 38046 ft 373 kts 276°
2026-04-29 15:10 32.41554 -89.18257 38042 ft 372 kts 276°
2026-04-29 15:10 32.41696 -89.24369 38041 ft 371 kts 276°
2026-04-29 15:11 32.41836 -89.30464 38035 ft 370 kts 276°
2026-04-29 15:11 32.41973 -89.36547 38037 ft 369 kts 276°
2026-04-29 15:12 32.42109 -89.42621 38027 ft 369 kts 276°
2026-04-29 15:12 32.42239 -89.48686 38027 ft 368 kts 276°
2026-04-29 15:13 32.42365 -89.54719 38028 ft 368 kts 276°
2026-04-29 15:13 32.42490 -89.60769 38030 ft 367 kts 276°
2026-04-29 15:14 32.42611 -89.66819 38022 ft 367 kts 276°
2026-04-29 15:14 32.42730 -89.72868 38020 ft 367 kts 275°
2026-04-29 15:15 32.42846 -89.78929 38019 ft 368 kts 275°
2026-04-29 15:15 32.42960 -89.84992 38020 ft 368 kts 275°
2026-04-29 15:16 32.43071 -89.91016 38015 ft 368 kts 275°
2026-04-29 15:16 32.43178 -89.97088 38022 ft 368 kts 275°
2026-04-29 15:17 32.43282 -90.03157 38017 ft 369 kts 275°
2026-04-29 15:17 32.43384 -90.09227 38017 ft 369 kts 275°
2026-04-29 15:18 32.43530 -90.15290 38020 ft 368 kts 276°
2026-04-29 15:18 32.43714 -90.21345 38018 ft 368 kts 276°
2026-04-29 15:19 32.43892 -90.27398 38018 ft 368 kts 276°
2026-04-29 15:19 32.44063 -90.33422 38021 ft 368 kts 276°
2026-04-29 15:20 32.44231 -90.39483 38017 ft 368 kts 276°
2026-04-29 15:20 32.44395 -90.45534 38020 ft 367 kts 276°
2026-04-29 15:21 32.44557 -90.51575 38019 ft 367 kts 276°
2026-04-29 15:21 32.44712 -90.57616 38015 ft 366 kts 276°
2026-04-29 15:22 32.44864 -90.63643 38019 ft 366 kts 276°
2026-04-29 15:22 32.45014 -90.69664 38006 ft 366 kts 276°
2026-04-29 15:23 32.45163 -90.75676 38009 ft 365 kts 276°
2026-04-29 15:23 32.45307 -90.81639 38009 ft 365 kts 276°
2026-04-29 15:24 32.45450 -90.87643 38006 ft 364 kts 276°
2026-04-29 15:24 32.45589 -90.93631 38011 ft 363 kts 276°
2026-04-29 15:25 32.45725 -90.99609 38005 ft 363 kts 276°
2026-04-29 15:25 32.45858 -91.05583 38010 ft 362 kts 276°
2026-04-29 15:26 32.45990 -91.11555 38008 ft 363 kts 276°
2026-04-29 15:26 32.46115 -91.17486 38010 ft 363 kts 275°
2026-04-29 15:27 32.46236 -91.23475 38007 ft 363 kts 275°
2026-04-29 15:27 32.46357 -91.29444 38010 ft 363 kts 275°
2026-04-29 15:28 32.46477 -91.35419 38019 ft 363 kts 275°
2026-04-29 15:28 32.46593 -91.41400 38018 ft 364 kts 275°
2026-04-29 15:29 32.46707 -91.47388 38019 ft 364 kts 275°
2026-04-29 15:30 32.46925 -91.59349 38020 ft 365 kts 275°
2026-04-29 15:30 32.47030 -91.65356 38018 ft 364 kts 275°
2026-04-29 15:31 32.47130 -91.71358 38020 ft 365 kts 275°
2026-04-29 15:31 32.47229 -91.77372 38018 ft 366 kts 275°
2026-04-29 15:32 32.47326 -91.83395 38019 ft 366 kts 275°
2026-04-29 15:32 32.47422 -91.89434 38021 ft 367 kts 275°
2026-04-29 15:33 32.47513 -91.95474 38016 ft 367 kts 275°
2026-04-29 15:33 32.47601 -92.01518 38024 ft 367 kts 275°
2026-04-29 15:34 32.47686 -92.07569 38018 ft 368 kts 275°
2026-04-29 15:34 32.47769 -92.13623 38019 ft 367 kts 275°
2026-04-29 15:35 32.47848 -92.19673 38019 ft 367 kts 275°
2026-04-29 15:35 32.47923 -92.25678 38017 ft 366 kts 275°
2026-04-29 15:36 32.47998 -92.31750 38013 ft 366 kts 275°
2026-04-29 15:36 32.48069 -92.37741 38011 ft 365 kts 275°
2026-04-29 15:37 32.48137 -92.43755 38006 ft 364 kts 275°
2026-04-29 15:37 32.48203 -92.49759 37998 ft 364 kts 275°
2026-04-29 15:38 32.48264 -92.55700 37999 ft 362 kts 275°
2026-04-29 15:38 32.48322 -92.61652 38000 ft 361 kts 275°
2026-04-29 15:39 32.48378 -92.67586 37997 ft 360 kts 275°
2026-04-29 15:39 32.48430 -92.73503 38001 ft 359 kts 275°
2026-04-29 15:40 32.48481 -92.79404 37999 ft 358 kts 275°
2026-04-29 15:40 32.48529 -92.85301 38002 ft 357 kts 274°
2026-04-29 15:41 32.48573 -92.91162 38007 ft 357 kts 274°
2026-04-29 15:41 32.48492 -92.97050 38007 ft 358 kts 272°
2026-04-29 15:42 32.48253 -93.02943 38014 ft 358 kts 272°
2026-04-29 15:42 32.48052 -93.07834 38009 ft 357 kts 272°
2026-04-29 15:43 32.47787 -93.14664 38006 ft 357 kts 272°
2026-04-29 15:43 32.47600 -93.19590 38010 ft 357 kts 272°
2026-04-29 15:44 32.47379 -93.25427 38019 ft 357 kts 272°
2026-04-29 15:44 32.47156 -93.31304 38019 ft 357 kts 272°
2026-04-29 15:45 32.46929 -93.37184 38012 ft 357 kts 272°
2026-04-29 15:45 32.46700 -93.43057 38009 ft 357 kts 272°
2026-04-29 15:46 32.46470 -93.48896 38001 ft 357 kts 272°
2026-04-29 15:46 32.46237 -93.54764 37999 ft 357 kts 271°
2026-04-29 15:47 32.46000 -93.60634 37994 ft 357 kts 271°
2026-04-29 15:47 32.45760 -93.66509 37990 ft 357 kts 271°
2026-04-29 15:48 32.45518 -93.72378 37990 ft 357 kts 271°
2026-04-29 15:48 32.45273 -93.78244 38003 ft 357 kts 271°
2026-04-29 15:49 32.45026 -93.84108 37999 ft 356 kts 271°
2026-04-29 15:49 32.44776 -93.89971 38002 ft 356 kts 271°
2026-04-29 15:50 32.44523 -93.95825 38001 ft 356 kts 271°
2026-04-29 15:50 32.44269 -94.01687 38001 ft 356 kts 271°
2026-04-29 15:51 32.44013 -94.07507 38007 ft 356 kts 271°
2026-04-29 15:51 32.43752 -94.13358 38008 ft 355 kts 271°
2026-04-29 15:52 32.43488 -94.19201 38011 ft 355 kts 271°
2026-04-29 15:52 32.43223 -94.25044 38010 ft 355 kts 271°
2026-04-29 15:53 32.42955 -94.30880 38010 ft 355 kts 271°
2026-04-29 15:53 32.42684 -94.36708 38005 ft 354 kts 271°
2026-04-29 15:54 32.42412 -94.42524 38009 ft 354 kts 271°
2026-04-29 15:54 32.42137 -94.48337 38010 ft 353 kts 271°
2026-04-29 15:55 32.41862 -94.54119 38017 ft 356 kts 271°
2026-04-29 15:55 32.41576 -94.60039 38013 ft 364 kts 270°
2026-04-29 15:56 32.41284 -94.66091 37516 ft 371 kts 270°
2026-04-29 15:56 32.41135 -94.69112 36985 ft 366 kts 270°
2026-04-29 15:56 32.40985 -94.72126 36350 ft 366 kts 270°
2026-04-29 15:56 32.40836 -94.75134 35666 ft 367 kts 270°
2026-04-29 15:57 32.40686 -94.78149 34949 ft 368 kts 270°
2026-04-29 15:57 32.40535 -94.81181 34225 ft 370 kts 270°
2026-04-29 15:57 32.40382 -94.84225 33467 ft 372 kts 270°
2026-04-29 15:57 32.40227 -94.87287 32856 ft 371 kts 270°
2026-04-29 15:58 32.40072 -94.90329 32313 ft 368 kts 270°
2026-04-29 15:58 32.39920 -94.93340 31792 ft 365 kts 269°
2026-04-29 15:58 32.39766 -94.96318 31275 ft 362 kts 269°
2026-04-29 15:58 32.39618 -94.99276 30769 ft 358 kts 270°
2026-04-29 15:59 32.39575 -95.02168 30286 ft 354 kts 272°
2026-04-29 15:59 32.39602 -95.05070 29790 ft 351 kts 272°
2026-04-29 15:59 32.39645 -95.07953 29291 ft 348 kts 272°
2026-04-29 15:59 32.39686 -95.10806 28780 ft 345 kts 272°
2026-04-29 16:00 32.39720 -95.13631 28266 ft 342 kts 272°
2026-04-29 16:00 32.39749 -95.16431 27766 ft 339 kts 271°
2026-04-29 16:00 32.39775 -95.19210 27268 ft 337 kts 271°
2026-04-29 16:00 32.39800 -95.21985 26764 ft 336 kts 271°
2026-04-29 16:01 32.39824 -95.24741 26265 ft 334 kts 271°
2026-04-29 16:01 32.39847 -95.27496 26044 ft 334 kts 271°
2026-04-29 16:01 32.39873 -95.30298 25591 ft 348 kts 271°
2026-04-29 16:01 32.39911 -95.33123 25143 ft 345 kts 271°
2026-04-29 16:02 32.39952 -95.35952 24634 ft 342 kts 271°
2026-04-29 16:02 32.39993 -95.38761 24144 ft 339 kts 271°
2026-04-29 16:02 32.40032 -95.41539 23655 ft 337 kts 270°
2026-04-29 16:02 32.40070 -95.44299 23163 ft 334 kts 270°
2026-04-29 16:03 32.40107 -95.47037 22693 ft 332 kts 270°
2026-04-29 16:03 32.40142 -95.49757 22217 ft 330 kts 270°
2026-04-29 16:03 32.40176 -95.52464 21740 ft 328 kts 270°
2026-04-29 16:03 32.40210 -95.55155 21270 ft 327 kts 270°
2026-04-29 16:04 32.40243 -95.57845 20798 ft 325 kts 270°
2026-04-29 16:04 32.40275 -95.60516 20324 ft 324 kts 271°
2026-04-29 16:04 32.40307 -95.63186 19850 ft 323 kts 271°
2026-04-29 16:04 32.40338 -95.65841 19384 ft 322 kts 270°
2026-04-29 16:05 32.40370 -95.68485 18919 ft 321 kts 271°
2026-04-29 16:05 32.40466 -95.71131 18428 ft 321 kts 273°
2026-04-29 16:05 32.40609 -95.73760 17973 ft 320 kts 274°
2026-04-29 16:05 32.40762 -95.76352 17527 ft 319 kts 274°
2026-04-29 16:06 32.40915 -95.78967 17075 ft 318 kts 274°
2026-04-29 16:06 32.41064 -95.81586 16593 ft 319 kts 273°
2026-04-29 16:06 32.41209 -95.84201 16114 ft 318 kts 273°
2026-04-29 16:06 32.41351 -95.86815 15659 ft 317 kts 273°
2026-04-29 16:07 32.41491 -95.89420 15202 ft 317 kts 273°
2026-04-29 16:07 32.41628 -95.92018 14753 ft 316 kts 273°
2026-04-29 16:07 32.41764 -95.94615 14306 ft 315 kts 273°
2026-04-29 16:07 32.41899 -95.97197 13861 ft 314 kts 273°
2026-04-29 16:08 32.42033 -95.99770 13420 ft 312 kts 273°
2026-04-29 16:08 32.42165 -96.02332 12984 ft 311 kts 273°
2026-04-29 16:08 32.42296 -96.04883 12551 ft 310 kts 273°
2026-04-29 16:08 32.42427 -96.07431 12118 ft 309 kts 273°
2026-04-29 16:09 32.42554 -96.09935 11686 ft 308 kts 273°
2026-04-29 16:09 32.42682 -96.12463 11262 ft 307 kts 273°
2026-04-29 16:09 32.42809 -96.14986 10836 ft 307 kts 273°
2026-04-29 16:09 32.42936 -96.17495 10567 ft 301 kts 272°
2026-04-29 16:10 32.43060 -96.19932 10414 ft 292 kts 272°
2026-04-29 16:10 32.43178 -96.22288 10276 ft 283 kts 272°
2026-04-29 16:10 32.43293 -96.24576 10147 ft 274 kts 272°
2026-04-29 16:10 32.43403 -96.26795 10030 ft 266 kts 272°
2026-04-29 16:11 32.43510 -96.28960 9804 ft 263 kts 272°
2026-04-29 16:11 32.43616 -96.31112 9535 ft 261 kts 272°
2026-04-29 16:11 32.43721 -96.33255 9253 ft 260 kts 272°
2026-04-29 16:11 32.43830 -96.35389 8972 ft 260 kts 275°
2026-04-29 16:12 32.44382 -96.37412 8684 ft 262 kts 300°
2026-04-29 16:12 32.45117 -96.38545 8511 ft 262 kts 311°
2026-04-29 16:12 32.46825 -96.40567 8141 ft 262 kts 314°
2026-04-29 16:12 32.48137 -96.42069 7854 ft 262 kts 314°
2026-04-29 16:13 32.49443 -96.43570 7570 ft 262 kts 314°
2026-04-29 16:13 32.50745 -96.45074 7286 ft 261 kts 314°
2026-04-29 16:13 32.52042 -96.46580 6999 ft 261 kts 314°
2026-04-29 16:13 32.53333 -96.48086 6726 ft 261 kts 314°
2026-04-29 16:14 32.54623 -96.49597 6444 ft 260 kts 314°
2026-04-29 16:14 32.55911 -96.51107 6160 ft 260 kts 315°
2026-04-29 16:14 32.57193 -96.52611 5878 ft 259 kts 315°
2026-04-29 16:14 32.57613 -96.53104 5787 ft 259 kts 315°
2026-04-29 16:15 32.58889 -96.54601 5513 ft 258 kts 315°
2026-04-29 16:15 32.60164 -96.56101 5239 ft 257 kts 315°
2026-04-29 16:15 32.61429 -96.57590 4967 ft 256 kts 315°
2026-04-29 16:15 32.62698 -96.59079 4693 ft 256 kts 316°
2026-04-29 16:16 32.63962 -96.60539 4529 ft 250 kts 316°
2026-04-29 16:16 32.65195 -96.61958 4408 ft 243 kts 316°
2026-04-29 16:16 32.66392 -96.63338 4295 ft 236 kts 316°
2026-04-29 16:16 32.67554 -96.64678 4193 ft 229 kts 317°
2026-04-29 16:17 32.68680 -96.65977 4091 ft 222 kts 317°
2026-04-29 16:17 32.69772 -96.67235 4001 ft 218 kts 317°
2026-04-29 16:17 32.70851 -96.68478 3821 ft 218 kts 317°
2026-04-29 16:17 32.71933 -96.69727 3615 ft 211 kts 317°
2026-04-29 16:18 32.72961 -96.70914 3387 ft 206 kts 318°
2026-04-29 16:18 32.73980 -96.72090 3162 ft 202 kts 319°
2026-04-29 16:18 32.74973 -96.73237 2968 ft 196 kts 319°
2026-04-29 16:18 32.75935 -96.74351 2756 ft 190 kts 319°
2026-04-29 16:19 32.76874 -96.75434 2502 ft 186 kts 319°
2026-04-29 16:19 32.77785 -96.76486 2244 ft 178 kts 319°
2026-04-29 16:19 32.78651 -96.77488 1998 ft 169 kts 319°
2026-04-29 16:19 32.79482 -96.78449 1784 ft 165 kts 318°
2026-04-29 16:20 32.80291 -96.79384 1627 ft 155 kts 319°
2026-04-29 16:20 32.81025 -96.80235 1420 ft 142 kts 319°
2026-04-29 16:20 32.81716 -96.81036 1214 ft 136 kts 318°
2026-04-29 16:20 32.82382 -96.81826 1028 ft 137 kts 318°
2026-04-29 16:21 32.83063 -96.82618 854 ft 136 kts 321°
2026-04-29 16:21 32.83747 -96.83393 642 ft 135 kts 320°
2026-04-29 16:21 32.84408 -96.84155 492 ft 128 kts 319°
2026-04-29 16:21 32.84951 -96.84779 481 ft 80 kts 316°
2026-04-29 16:22 32.85225 -96.85097 481 ft 41 kts 316°
2026-04-29 16:22 32.85350 -96.85244 482 ft 13 kts 310°
2026-04-29 16:22 32.85345 -96.85319 481 ft 10 kts 228°
2026-04-29 16:22 32.85286 -96.85352 477 ft 10 kts 167°
2026-04-29 16:23 32.85237 -96.85295 475 ft 12 kts 131°
2026-04-29 16:23 32.85161 -96.85206 476 ft 18 kts 136°
2026-04-29 16:23 32.85063 -96.85093 475 ft 21 kts 135°
2026-04-29 16:23 32.84962 -96.84973 481 ft 20 kts 135°
2026-04-29 16:24 32.84862 -96.84859 475 ft 20 kts 136°
2026-04-29 16:24 32.84776 -96.84811 481 ft 13 kts 183°
2026-04-29 16:24 32.84706 -96.84748 478 ft 13 kts 135°
2026-04-29 16:24 32.84644 -96.84675 481 ft 12 kts 135°
2026-04-29 16:25 32.84571 -96.84642 481 ft 12 kts 205°
2026-04-29 16:25 32.84515 -96.84714 481 ft 12 kts 245°
2026-04-29 16:25 32.84510 -96.84810 476 ft 11 kts 270°
2026-04-29 16:25 32.84529 -96.84869 477 ft 6 kts 330°
2026-04-29 16:26 32.84555 -96.84873 481 ft 3 kts 357°
2026-04-29 16:26 32.84561 -96.84874 481 ft 0 kts 358°